Location: Moscow
(55.7500°N, 37.5830°E)
Time: 13:53:07
(UTC+03:00)

Vanguard 1 - Pass Details

Date: 08 December 2021
Orbit: 652 x 3830 km, 34.2° (Epoch: 25 January)

Event Time Altitude Azimuth Distance (km) Brightness Sun altitude
Exits shadow 03:09:25 35° 175° (S) 4,737 13.2 -44.8°
Drops below altitude 10° 03:21:32 10° 136° (SE) 5,684 14.0 -43.3°
Sets 03:25:40 0° 128° (SE) 6,314 14.5 -42.8°
